• en France
  • Liste des pays
  • À 7 jours
  • Température de l'eau
  • Carte satellitaire
  • Carte météo
  • Widgets météo
  • user-avatar
    Se connecter

    Météo par heure à Valledupar

    Ce jour, 20 Mai, Dimanche

    Heure Température Précipitation Vent Pression Humidité
    00:00 +28°C° 0,5 mm 1 m/s 743 mmHg 83%
    01:00 +27°C° 0 mm 1 m/s 743 mmHg 84%
    02:00 +27°C° 0,5 mm 1 m/s 743 mmHg 84%
    03:00 +27°C° 0,5 mm 1 m/s 743 mmHg 85%
    04:00 +27°C° 0,5 mm 1 m/s 743 mmHg 86%
    05:00 +28°C° 0,4 mm 1 m/s 743 mmHg 83%
    06:00 +28°C° 0,4 mm 1 m/s 743 mmHg 81%
    07:00 +29°C° 0,4 mm 1 m/s 744 mmHg 78%
    08:00 +31°C° 0,2 mm 1 m/s 744 mmHg 71%
    09:00 +32°C° 0,2 mm 1 m/s 744 mmHg 64%
    10:00 +34°C° 0,2 mm 1 m/s 744 mmHg 57%
    11:00 +34°C° 0,3 mm 1 m/s 743 mmHg 55%
    12:00 +35°C° 0,3 mm 1 m/s 743 mmHg 53%
    13:00 +36°C° 0,3 mm 1 m/s 742 mmHg 52%
    14:00 +35°C° 0,7 mm 1 m/s 742 mmHg 55%
    15:00 +34°C° 0,7 mm 1 m/s 741 mmHg 57%
    16:00 +33°C° 0,7 mm 1 m/s 741 mmHg 60%
    17:00 +32°C° 1,1 mm 1 m/s 741 mmHg 66%
    18:00 +30°C° 1,1 mm 1 m/s 741 mmHg 72%
    19:00 +29°C° 1,1 mm 1 m/s 741 mmHg 77%
    20:00 +29°C° 0,8 mm 1 m/s 742 mmHg 79%
    21:00 +28°C° 0,8 mm 1 m/s 742 mmHg 80%
    22:00 +28°C° 0,8 mm 1 m/s 743 mmHg 82%
    23:00 +28°C° 0,8 mm 1 m/s 742 mmHg 82%

    Demain, 21 Mai, Lundi

    Heure Température Précipitation Vent Pression Humidité
    00:00 +28°C° 0,8 mm 1 m/s 742 mmHg 83%
    01:00 +26°C° 0,8 mm 0 m/s 742 mmHg 83%
    02:00 +26°C° 0,9 mm 0 m/s 742 mmHg 83%
    03:00 +26°C° 0,9 mm 0 m/s 742 mmHg 83%
    04:00 +25°C° 0,9 mm 0 m/s 741 mmHg 83%
    05:00 +26°C° 0,7 mm 0 m/s 742 mmHg 82%
    06:00 +26°C° 0,7 mm 0 m/s 742 mmHg 81%
    07:00 +26°C° 0,7 mm 0 m/s 743 mmHg 80%
    08:00 +27°C° 0,7 mm 0 m/s 743 mmHg 76%
    09:00 +30°C° 0,7 mm 1 m/s 743 mmHg 71%
    10:00 +31°C° 0,7 mm 1 m/s 744 mmHg 67%
    11:00 +32°C° 0,8 mm 1 m/s 743 mmHg 65%
    12:00 +32°C° 0,8 mm 1 m/s 743 mmHg 62%
    13:00 +33°C° 0,8 mm 1 m/s 743 mmHg 60%
    14:00 +32°C° 0,7 mm 1 m/s 742 mmHg 63%
    15:00 +32°C° 0,7 mm 1 m/s 742 mmHg 66%
    16:00 +31°C° 0,7 mm 1 m/s 741 mmHg 70%
    17:00 +30°C° 0,7 mm 1 m/s 742 mmHg 74%
    18:00 +29°C° 0,7 mm 1 m/s 742 mmHg 78%
    19:00 +28°C° 0,7 mm 1 m/s 742 mmHg 82%
    20:00 +28°C° 0,5 mm 1 m/s 743 mmHg 82%
    21:00 +28°C° 0,5 mm 1 m/s 743 mmHg 82%
    22:00 +28°C° 0,5 mm 1 m/s 744 mmHg 82%
    23:00 +28°C° 0,6 mm 1 m/s 743 mmHg 83%

    Après-demain, 22 Mai, Mardi

    Heure Température Précipitation Vent Pression Humidité
    00:00 +27°C° 0,6 mm 1 m/s 743 mmHg 83%
    01:00 +27°C° 0,6 mm 1 m/s 743 mmHg 84%
    02:00 +27°C° 0,6 mm 1 m/s 742 mmHg 84%
    03:00 +27°C° 0,6 mm 1 m/s 742 mmHg 85%
    04:00 +27°C° 0,6 mm 1 m/s 742 mmHg 85%
    05:00 +27°C° 0,5 mm 1 m/s 742 mmHg 83%
    06:00 +26°C° 0,5 mm 0 m/s 743 mmHg 81%
    07:00 +26°C° 0,5 mm 0 m/s 743 mmHg 79%
    08:00 +30°C° 0,4 mm 1 m/s 743 mmHg 73%
    09:00 +31°C° 0,4 mm 1 m/s 744 mmHg 66%
    10:00 +33°C° 0,4 mm 1 m/s 744 mmHg 60%
    11:00 +33°C° 0,5 mm 1 m/s 743 mmHg 58%
    12:00 +34°C° 0,5 mm 1 m/s 743 mmHg 57%
    13:00 +34°C° 0,5 mm 1 m/s 742 mmHg 55%
    14:00 +34°C° 0,8 mm 1 m/s 742 mmHg 58%
    15:00 +33°C° 0,8 mm 1 m/s 741 mmHg 61%
    16:00 +32°C° 0,8 mm 1 m/s 741 mmHg 64%
    17:00 +31°C° 0,9 mm 1 m/s 741 mmHg 69%
    18:00 +30°C° 0,9 mm 1 m/s 741 mmHg 73%
    19:00 +29°C° 0,9 mm 1 m/s 742 mmHg 78%
    20:00 +29°C° 0,6 mm 1 m/s 742 mmHg 79%
    21:00 +28°C° 0,6 mm 1 m/s 743 mmHg 80%
    22:00 +28°C° 0,6 mm 1 m/s 743 mmHg 81%
    23:00 +28°C° 0,8 mm 1 m/s 743 mmHg 82%

    23 Mai, Mercredi

    Heure Température Précipitation Vent Pression Humidité
    00:00 +28°C° 0,8 mm 1 m/s 743 mmHg 82%
    01:00 +28°C° 0,8 mm 1 m/s 742 mmHg 83%
    02:00 +26°C° 1,1 mm 0 m/s 742 mmHg 83%
    03:00 +26°C° 1,1 mm 0 m/s 742 mmHg 83%
    04:00 +25°C° 1,1 mm 0 m/s 742 mmHg 83%
    05:00 +26°C° 1,6 mm 0 m/s 743 mmHg 82%
    06:00 +26°C° 1,6 mm 0 m/s 743 mmHg 80%
    07:00 +27°C° 1,6 mm 0 m/s 744 mmHg 79%
    08:00 +28°C° 1,1 mm 0 m/s 744 mmHg 74%
    09:00 +31°C° 1,1 mm 1 m/s 744 mmHg 70%
    10:00 +33°C° 1,1 mm 1 m/s 744 mmHg 65%
    11:00 +33°C° 1 mm 1 m/s 744 mmHg 63%
    12:00 +34°C° 1 mm 1 m/s 743 mmHg 60%
    13:00 +34°C° 1 mm 1 m/s 742 mmHg 58%
    14:00 +34°C° 0,8 mm 1 m/s 742 mmHg 60%
    15:00 +33°C° 0,8 mm 1 m/s 742 mmHg 62%
    16:00 +33°C° 0,8 mm 1 m/s 741 mmHg 63%
    17:00 +31°C° 0,7 mm 1 m/s 742 mmHg 69%
    18:00 +30°C° 0,7 mm 1 m/s 742 mmHg 74%
    19:00 +27°C° 0,7 mm 0 m/s 743 mmHg 79%
    20:00 +27°C° 0,7 mm 0 m/s 743 mmHg 80%
    21:00 +28°C° 0,7 mm 1 m/s 744 mmHg 80%
    22:00 +28°C° 0,7 mm 1 m/s 744 mmHg 81%
    23:00 +28°C° 0,6 mm 1 m/s 744 mmHg 81%

    24 Mai, Jeudi

    Heure Température Précipitation Vent Pression Humidité
    00:00 +26°C° 0,6 mm 0 m/s 743 mmHg 82%
    01:00 +26°C° 0,6 mm 0 m/s 743 mmHg 83%
    02:00 +26°C° 0,8 mm 0 m/s 743 mmHg 84%
    03:00 +25°C° 0,8 mm 0 m/s 743 mmHg 84%
    04:00 +25°C° 0,8 mm 0 m/s 743 mmHg 85%
    05:00 +26°C° 1,3 mm 0 m/s 743 mmHg 84%
    06:00 +26°C° 1,3 mm 0 m/s 744 mmHg 82%
    07:00 +27°C° 1,3 mm 0 m/s 744 mmHg 81%
    08:00 +28°C° 1,1 mm 0 m/s 745 mmHg 76%
    09:00 +29°C° 1,1 mm 0 m/s 745 mmHg 72%
    10:00 +32°C° 1,1 mm 1 m/s 745 mmHg 67%
    11:00 +33°C° 1 mm 1 m/s 744 mmHg 65%
    12:00 +33°C° 1 mm 1 m/s 744 mmHg 64%
    13:00 +33°C° 1 mm 1 m/s 743 mmHg 62%
    14:00 +33°C° 1 mm 1 m/s 742 mmHg 65%
    15:00 +32°C° 1 mm 1 m/s 742 mmHg 68%
    16:00 +31°C° 1 mm 1 m/s 742 mmHg 71%
    17:00 +30°C° 0,8 mm 1 m/s 742 mmHg 74%
    18:00 +29°C° 0,8 mm 1 m/s 742 mmHg 77%
    19:00 +28°C° 0,8 mm 1 m/s 743 mmHg 80%
    20:00 +28°C° 0,6 mm 1 m/s 743 mmHg 79%
    21:00 +28°C° 0,6 mm 1 m/s 744 mmHg 79%
    22:00 +28°C° 0,6 mm 1 m/s 744 mmHg 78%
    23:00 +28°C° 0,5 mm 1 m/s 744 mmHg 79%

    25 Mai, Vendredi

    Heure Température Précipitation Vent Pression Humidité
    00:00 +28°C° 0,5 mm 1 m/s 743 mmHg 79%
    01:00 +27°C° 0,5 mm 1 m/s 743 mmHg 80%
    02:00 +27°C° 0,6 mm 1 m/s 743 mmHg 81%
    03:00 +27°C° 0,6 mm 1 m/s 743 mmHg 82%
    04:00 +27°C° 0,6 mm 1 m/s 743 mmHg 83%
    05:00 +28°C° 0,7 mm 1 m/s 743 mmHg 81%
    06:00 +26°C° 0,7 mm 0 m/s 743 mmHg 80%
    07:00 +27°C° 0,7 mm 0 m/s 744 mmHg 79%
    08:00 +28°C° 1 mm 0 m/s 744 mmHg 75%
    09:00 +31°C° 1 mm 1 m/s 744 mmHg 70%
    10:00 +32°C° 1 mm 1 m/s 744 mmHg 66%
    11:00 +33°C° 1,2 mm 1 m/s 743 mmHg 64%
    12:00 +33°C° 1,2 mm 1 m/s 743 mmHg 63%
    13:00 +33°C° 1,2 mm 1 m/s 742 mmHg 62%
    14:00 +33°C° 0,8 mm 1 m/s 742 mmHg 64%
    15:00 +30°C° 0,8 mm 0 m/s 741 mmHg 65%
    16:00 +30°C° 0,8 mm 0 m/s 741 mmHg 67%
    17:00 +29°C° 0,5 mm 0 m/s 741 mmHg 70%
    18:00 +28°C° 0,5 mm 0 m/s 742 mmHg 73%
    19:00 +29°C° 0,5 mm 1 m/s 742 mmHg 76%
    20:00 +28°C° 0,5 mm 1 m/s 742 mmHg 76%
    21:00 +28°C° 0,5 mm 1 m/s 743 mmHg 75%
    22:00 +28°C° 0,5 mm 1 m/s 743 mmHg 75%
    23:00 +28°C° 0,7 mm 1 m/s 743 mmHg 76%
    Voir plus